Regional Weather Roundup
Issued by NWS

Home | Current Version | Previous Version | Text Only | Print | Product List | Glossary Off
Versions: 1 2 3 4 5 6 7 8 9 10 11 12 13 14 15 16 17 18 19 20 21 22 23 24 25 26 27 28 29 30 31 32 33 34 35 36 37 38 39 40 41 42 43 44 45 46 47 48 49 50

000
ASUS43 KMPX 211810
RWRMN
WEATHER ROUNDUP FOR MINNESOTA
NATIONAL WEATHER SERVICE TWIN CITIES/CHANHASSEN MN
100 PM CDT FRI JUL 21 2017


NOTE: "FAIR" INDICATES FEW OR NO CLOUDS BELOW 12,000 FEET WITH NO
SIGNIFICANT WEATHER AND/OR OBSTRUCTIONS TO VISIBILITY. N/A MEANS
CURRENT SKY AND/OR WEATHER CONDITIONS ARE NOT AVAILABLE.

MNZ060>063-068>070-211900-
   Twin Cities Metro

CITY           SKY/WX    TMP DP  RH WIND       PRES   REMARKS
TWIN CITIES    CLOUDY    75  69  81 SE14      29.89S
6HR MIN TEMP:  72; 6HR MAX TEMP:  76; 6HR PCP: TRACE;

ST PAUL        CLOUDY    74  71  91 SE9       29.90R
CRYSTAL        PTSUNNY   76  66  71 SE10      29.86F
BLAINE         CLOUDY    75  70  83 SE12G17   29.89R
LAKEVILLE      LGT RAIN  72  72 100 SE8       29.89S
EDEN PRAIRIE   CLOUDY    77  71  82 SE10      29.87S
6HR MIN TEMP:  71; 6HR MAX TEMP:  77;

SOUTH ST PAUL  PTSUNNY   74  71  89 S7        29.89S
LAKE ELMO      LGT RAIN  72  70  94 SE7       29.92R
$$
MNZ001>005-007-008-013>017-022>024-027-028-211900-
   Northwest Minnesota

CITY           SKY/WX    TMP DP  RH WIND       PRES   REMARKS
BEMIDJI        SUNNY     84  60  45 SE16      29.85F
HALLOCK        CLOUDY    79  72  78 SE8G17    29.78F
ROSEAU         CLOUDY    77  66  69 E5        29.84R
WARROAD        SUNNY     79  66  65 E7        29.85S
THIEF RVR FALL PTSUNNY   81  71  71 S7        29.81F
CROOKSTON      MOSUNNY   84  72  65 SW6       29.79S
FOSSTON        SUNNY     82  68  61 S8        29.83F
DETROIT LAKES  MOSUNNY   81  70  69 SE9       29.84S
MOORHEAD       SUNNY     88  72  58 S5        29.78F HX  94
PARK RAPIDS    SUNNY     84  62  47 S13G26    29.85S
MAHNOMEN       CLOUDY    81  70  69 SE6       29.82S
$$
MNZ006-009>011-018-025>026-211900-
   North Central Minnesota

CITY           SKY/WX    TMP DP  RH WIND       PRES   REMARKS
BAUDETTE       CLOUDY    80  59  48 SE16      29.85F
FLAG ISLAND    PTSUNNY   75  57  53 E5        29.86F
INTL FALLS     CLOUDY    75  59  57 E10       29.90F
6HR MIN TEMP:  59; 6HR MAX TEMP:  75;

WASKISH        MOSUNNY   82  66  57 SE13G18   29.85F
BIG FORK       CLOUDY    81  66  61 E6        29.90F
LONGVILLE      SUNNY     82  63  51 SE15G21   29.87S
GRAND RAPIDS   SUNNY     80  68  66 SE13      29.91F
CRANE LAKE     MOSUNNY   70  61  73 CALM      29.95F
ORR            CLOUDY    75  59  57 SE6       29.90F
COOK           MOSUNNY   79  63  57 SE5       29.93F
WALKER         FAIR      82  57  42 S13G18    29.86F
$$
MNZ012-019>021-037-211900-
   Northeast Minnesota

CITY           SKY/WX    TMP DP  RH WIND       PRES   REMARKS
DULUTH         CLOUDY    72  64  76 SE10      29.94F
6HR MIN TEMP:  64; 6HR MAX TEMP:  73;

ELY            CLOUDY    75  55  50 E7        29.95F
HIBBING        MOSUNNY   80  65  59 S8        29.92S
EVELETH        MOSUNNY   80  61  51 SE6       29.95S
DULUTH HARBOR  CLOUDY    68  61  77 E6        29.94S
TWO HARBORS    CLOUDY    79  63  57 E6        29.94R
GRAND MARAIS     N/A     65  55  70 NE3       29.96F
G MARAIS ARPRT CLOUDY    68  52  56 S3        30.02S
$$
MNZ029>031-032-039>041-046>048-054>057-064-211900-
   West Central Minnesota

CITY           SKY/WX    TMP DP  RH WIND       PRES   REMARKS
FERGUS FALLS   SUNNY     81  72  74 S7        29.80F
WHEATON        SUNNY     82  72  69 SE6       29.81F
MORRIS         PTSUNNY   82  72  69 SE12      29.83R
ALEXANDRIA     MOSUNNY   80  72  76 SE12      29.86S
ELBOW LAKE     PTSUNNY   80  73  79 S8        29.83S
WADENA         CLOUDY    81  70  69 S8        29.84F
GLENWOOD       MOSUNNY   81  72  74 SE10      29.86S
APPLETON       PTSUNNY   82  70  65 S8        29.82S
BENSON         MOSUNNY   82  72  69 S12       29.85S
ORTONVILLE     PTSUNNY   82  72  69 SE8       29.82S
MADISON        PTSUNNY   84  73  70 SE6       29.83R HX  91
WILLMAR        FAIR      79  72  78 SE13      29.86R
$$
MNZ033>034-036-042>043-049>051-058-059-211900-
   Central Minnesota

CITY           SKY/WX    TMP DP  RH WIND       PRES   REMARKS
ST CLOUD       CLOUDY    79  72  79 SE14      29.87R
6HR MIN TEMP:  66; 6HR MAX TEMP:  79;

SAUK CENTRE    FAIR      80  71  74 SE13      29.86S
PAYNESVILLE    MOSUNNY   79  70  73 SE8       29.88R
AITKIN         CLOUDY    79  64  61 SE13G20   29.86F
PINE RIVER     MOSUNNY   82  64  54 SE10G18   29.90S
BRAINERD       MOSUNNY   81  66  60 SE13G18   29.86F
STAPLES        MOSUNNY   81  66  61 SE10      29.85S
LONG PRAIRIE   FAIR      79  70  73 E12       29.86R
LITTLE FALLS   MOSUNNY   79  68  69 SE10      29.86F
LITCHFIELD     CLOUDY    81  73  78 SE7       29.86S
BUFFALO        CLOUDY    76  69  78 SE8       29.87S
MAPLE LAKE     CLOUDY    77  72  85 SE3       29.88R
HUTCHINSON     CLOUDY    76  72  85 SE9       29.88R
$$
MNZ037-044-045-052-053-211900-
   East Central Minnesota

CITY           SKY/WX    TMP DP  RH WIND       PRES   REMARKS
PRINCETON      CLOUDY    81  70  69 SE9G16    29.87S
MORA           PTSUNNY   79  63  57 S12       29.90F
CAMBRIDGE      PTSUNNY   81  64  57 SE8       29.87S
RUSH CITY      CLOUDY    78  67  69 SE7       29.89F
MOOSE LAKE     PTSUNNY   79  64  61 S3        29.89F
HINCKLEY       FAIR      81  70  69 S8        29.90F
CLOQUET        CLOUDY    72  63  73 E5        29.93F
MCGREGOR       CLOUDY    79  63  57 SE17      29.89F
$$
MNZ071>073-080-081-089-090-097-098-211900-
   Southwest Minnesota

CITY           SKY/WX    TMP DP  RH WIND       PRES   REMARKS
MONTEVIDEO     MOSUNNY   84  73  70 S13       29.83R HX  91
GRANITE FALLS  MOSUNNY   82  73  73 SE12      29.85R
CANBY          PTSUNNY   84  73  68 CALM      29.85R HX  90
MARSHALL       MOSUNNY   82  71  69 SE10      29.83R
REDWOOD FALLS  CLOUDY    80  72  76 SE9G16    29.84S
OLIVIA         CLOUDY    77  72  83 SE10G16   29.85R
PIPESTONE      PTSUNNY   81  70  69 SW8       29.86R
WINDOM         PTSUNNY   79  70  73 E10       29.86R
WORTHINGTON    PTSUNNY   75  70  84 SE10      29.86R
JACKSON        CLOUDY    72  72 100 SE12      29.85S
SLAYTON        PTSUNNY   79  67  65 S9        29.85R
$$
MNZ065>067-074>077-082>085-091>093-211900-
   South Central Minnesota

CITY           SKY/WX    TMP DP  RH WIND       PRES   REMARKS
MANKATO        CLOUDY    73  70  90 S14       29.89R
NEW ULM        CLOUDY    75  72  88 SE12      29.86R
ST JAMES       CLOUDY    75  72  88 SE17G24   29.86S
FAIRMONT       CLOUDY    74  72  93 SE20G25   29.85S
GLENCOE        CLOUDY    78  73  86 SE12G18   29.86S
FARIBAULT      DRIZZLE   72  70  94 SE12      29.89F
OWATONNA       LGT RAIN  72  70  94 SE10      29.89F
WASECA         CLOUDY    72  70  94 SE10G16   29.91R
ALBERT LEA     RAIN      68  66  94 SE12      29.93R
$$
MNZ078>079-086>088-094>096-211900-
   Southeast Minnesota

CITY           SKY/WX    TMP DP  RH WIND       PRES   REMARKS
ROCHESTER      LGT RAIN  69  68  96 SE8       29.94F
6HR MIN TEMP:  68; 6HR MAX TEMP:  69; 6HR PCP:  0.27;

RED WING       LGT RAIN  73  70  88 SE7       29.90S
STANTON        CLOUDY    73  69  87 SE9       29.88F
DODGE CENTER   LGT RAIN  70  66  88 SE9       29.93F
WINONA         DRIZZLE   73  70  88 SW5       29.93F
AUSTIN         RAIN      70  66  88 SE10      29.90F
PRESTON        LGT RAIN  69  66  88 SE3       29.95F
$$
ABBREVIATIONS USED IN REMARKS
   TC - TEMPERATURES IN CELSIUS
  WCI - WIND CHILL INDEX
   HX - HEAT INDEX
  VSB - VISIBILITY
$$




USA.gov is the U.S. government's official web portal to all federal, state and local government web resources and services.